GW2669 Weather Reports


time (UTC)temp
C
wind
direction
speed
KPH
gust
KPH
rain 1hr
cm
rain 24hr
cm
rain mn
cm
humidity
%
barometer
mb
20260507183103 18 342 8.0 12.9 0.00 0.00 0.00 55 1018.3
20260507181559 17 0 0.0 12.9 0.00 0.00 0.00 60 1018.8
20260507180056 17 61 4.8 14.5 0.00 0.00 0.00 58 1019.2
20260507174548 17 0 1.6 11.3 0.00 0.00 0.00 57 1019.4
20260507173100 16 0 0.0 9.7 0.00 0.00 0.00 60 1019.8
20260507171555 16 67 3.2 12.9 0.00 0.00 0.00 61 1019.9
20260507170056 15 78 4.8 14.5 0.00 0.00 0.00 65 1020.1
20260507164552 15 55 4.8 9.7 0.00 0.00 0.00 64 1020.3
20260507163047 15 74 0.0 9.7 0.00 0.00 0.00 66 1020.4
20260507161556 15 65 1.6 14.5 0.00 0.00 0.00 67 1020.3
20260507160051 15 33 8.0 16.1 0.00 0.00 0.00 66 1020.2
20260507154556 14 74 1.6 11.3 0.00 0.00 0.00 70 1020.5
20260507153102 13 76 4.8 12.9 0.00 0.00 0.00 72 1020.6
20260507151555 13 76 8.0 16.1 0.00 0.00 0.00 73 1020.6
20260507144552 13 84 4.8 11.3 0.00 0.00 0.00 73 1020.6
20260507143105 13 108 3.2 4.8 0.00 0.00 0.00 73 1020.6
20260507141552 13 82 6.4 14.5 0.00 0.00 0.00 74 1020.6
20260507140054 13 71 0.0 14.5 0.00 0.00 0.00 70 1020.7
20260507134553 13 360 3.2 12.9 0.00 0.00 0.00 58 1020.5
20260507133051 13 309 8.0 14.5 0.00 0.00 0.00 56 1020.4
20260507131553 13 324 9.7 14.5 0.00 0.00 0.00 56 1020.4
20260507124559 13 306 3.2 11.3 0.00 0.00 0.00 54 1019.7
20260507123055 13 307 6.4 16.1 0.00 0.00 0.00 54 1019.7
20260507121558 13 305 11.3 17.7 0.00 0.00 0.00 54 1019.4
20260507120053 13 339 8.0 12.9 0.00 0.00 0.00 54 1019.3
20260507114559 13 300 9.7 17.7 0.00 0.00 0.00 54 1019.2
20260507113052 13 301 12.9 17.7 0.00 0.00 0.00 54 1019.2
20260507111559 12 309 11.3 16.1 0.00 0.00 0.00 55 1018.9
20260507110100 12 304 8.0 14.5 0.00 0.00 0.00 55 1019.0
20260507104600 12 294 8.0 17.7 0.00 0.00 0.00 55 1018.8
20260507103128 12 306 11.3 20.9 0.00 0.00 0.00 55 1018.7
20260507101551 12 324 9.7 22.5 0.00 0.00 0.00 54 1018.4
20260507100106 13 329 14.5 22.5 0.00 0.00 0.00 53 1018.0
20260507094603 13 331 16.1 24.1 0.00 0.00 0.00 52 1017.7
20260507093052 13 329 16.1 29.0 0.00 0.00 0.00 51 1017.2
20260507091554 14 336 17.7 27.4 0.00 0.00 0.00 49 1016.7
20260507090057 15 345 22.5 30.6 0.00 0.00 0.00 46 1016.5
20260507084553 15 337 17.7 24.1 0.00 0.00 0.00 39 1016.2
20260507083050 16 259 1.6 3.2 0.00 0.00 0.00 38 1015.4
20260507081552 16 0 0.0 0.0 0.00 0.00 0.00 37 1015.6
20260507080054 15 223 1.6 3.2 0.00 0.00 0.00 39 1015.6
20260507074600 15 203 4.8 8.0 0.00 0.00 0.00 41 1015.7
20260507073048 15 0 0.0 14.5 0.00 0.00 0.00 45 1015.7
20260507071557 17 0 0.0 6.4 0.00 0.00 0.00 33 1015.5
20260507070104 16 42 4.8 11.3 0.00 0.00 0.00 41 1015.5
20260507064559 17 0 0.0 0.0 0.00 0.00 0.00 33 1015.4
20260507063051 18 293 4.8 11.3 0.00 0.00 0.00 31 1015.2
20260507061550 16 0 0.0 3.2 0.00 0.00 0.00 35 1015.2
20260507054607 17 277 1.6 3.2 0.00 0.00 0.00 32 1015.1
20260507053102 18 275 1.6 3.2 0.00 0.00 0.00 28 1015.0
20260507051557 20 261 1.6 3.2 0.00 0.00 0.00 26 1015.0
20260507050055 20 0 0.0 0.0 0.00 0.00 0.00 25 1014.9
20260507044555 20 0 0.0 0.0 0.00 0.00 0.00 26 1014.7
20260507043049 20 0 0.0 3.2 0.00 0.00 0.00 29 1014.5
20260507041600 21 51 3.2 16.1 0.00 0.00 0.00 28 1014.5
20260507040054 20 0 0.0 9.7 0.00 0.00 0.00 31 1014.3
20260507034600 19 85 4.8 9.7 0.00 0.00 0.00 32 1014.3
20260507033055 20 88 0.0 3.2 0.00 0.00 0.00 34 1014.0
20260507031548 20 0 0.0 0.0 0.00 0.00 0.00 30 1013.6
20260507030056 22 34 1.6 8.0 0.00 0.00 0.00 22 1013.3
20260507024551 23 15 4.8 8.0 0.00 0.00 0.00 20 1013.0
20260507023052 22 9 3.2 4.8 0.00 0.00 0.00 21 1012.7
20260507021611 24 360 1.6 3.2 0.00 0.00 0.00 18 1012.4
20260507020106 26 317 3.2 6.4 0.00 0.00 0.00 16 1012.0
20260507014618 27 302 4.8 16.1 0.00 0.00 0.00 14 1011.8
20260507013053 28 305 9.7 17.7 0.00 0.00 0.00 12 1011.6
20260507011557 28 302 14.5 24.1 0.00 0.00 0.00 12 1011.3
20260507010048 29 288 12.9 25.7 0.00 0.00 0.00 11 1011.1
20260507004549 29 299 16.1 27.4 0.00 0.00 0.00 12 1010.9
20260507003051 30 300 17.7 27.4 0.00 0.00 0.00 13 1010.6
20260507001600 30 284 8.0 17.7 0.00 0.00 0.00 13 1010.6
20260507000111 30 319 12.9 27.4 0.00 0.00 0.00 13 1010.6
20260506234605 30 331 14.5 27.4 0.00 0.00 0.00 14 1010.6
20260506233050 30 298 24.1 32.2 0.00 0.00 0.00 13 1010.6
20260506231551 30 304 12.9 29.0 0.00 0.00 0.00 13 1010.4
20260506224555 30 298 17.7 29.0 0.00 0.00 0.00 13 1010.4
20260506223047 30 277 14.5 27.4 0.00 0.00 0.00 14 1010.3
20260506221559 30 277 17.7 38.6 0.00 0.00 0.00 14 1010.4
20260506220052 31 311 14.5 24.1 0.00 0.00 0.00 13 1010.3
20260506214547 30 302 11.3 20.9 0.00 0.00 0.00 14 1010.3
20260506213058 31 261 3.2 11.3 0.00 0.00 0.00 18 1010.6
20260506211553 30 244 8.0 20.9 0.00 0.00 0.00 15 1010.8
20260506210054 30 270 9.7 37.0 0.00 0.00 0.00 16 1011.2
20260506204552 30 0 1.6 17.7 0.00 0.00 0.00 18 1011.3
20260506203052 29 300 9.7 17.7 0.00 0.00 0.00 20 1011.8
20260506201551 28 49 4.8 12.9 0.00 0.00 0.00 19 1011.9
20260506200054 28 275 16.1 27.4 0.00 0.00 0.00 19 1012.3
20260506194553 28 265 9.7 16.1 0.00 0.00 0.00 20 1012.4
20260506193056 27 157 6.4 16.1 0.00 0.00 0.00 21 1012.6
20260506191559 27 98 3.2 19.3 0.00 0.00 0.00 23 1012.8
20260506190054 27 62 4.8 22.5 0.00 0.00 0.00 26 1012.9
20260506184556 27 49 6.4 19.3 0.00 0.00 0.00 23 1013.3